Preview of NWS' New Version of Forecast
This preview is not operational and should not be used for support decisions.

Regional Weather Roundup (RWR)

Issued by Gray - Portland, ME (GYX)

                            
000
ASUS41 KGYX 201805
RWRGYX
WEATHER ROUNDUP FOR MAINE AND NEW HAMPSHIRE
NATIONAL WEATHER SERVICE GRAY ME
100 PM EST WED FEB 20 2019

MEZ002-005-006-010-012-015-018-020-021-024-026-027-029-201900-
MAINE
  
CITY           SKY/WX    TMP DP  RH WIND       PRES   REMARKS
PORTLAND       CLOUDY    25   6  44 S13       30.49F WCI  14          
6HR MIN TEMP:   3; 6HR MAX TEMP:  25;                                

SANFORD        FAIR      27   6  41 VRB3      30.48F                  
BAR HARBOR     FAIR      22  -2  35 W9G20     30.47F                  
WISCASSET      FAIR      24   3  40 VRB5      30.49F                  
6HR MIN TEMP:  -3; 6HR MAX TEMP:  25;                                

ROCKLAND       FAIR      23   3  42 W14       30.49F WCI  11          
FRYEBURG       FAIR      23   1  38 CALM      30.45F                  
6HR MIN TEMP: -12; 6HR MAX TEMP:  23;                                

LEWISTONAUBURN FAIR      27   6  41 SW10      30.46F WCI  17          
AUGUSTA        FAIR      22  -1  36 W7        30.46F                  
6HR MIN TEMP:   3; 6HR MAX TEMP:  23;                                

WATERVILLE     FAIR      23   2  40 W8        30.44F                  
BANGOR         PTSUNNY   21  -3  35 W9        30.46F                  
6HR MIN TEMP:  -2; 6HR MAX TEMP:  21;                                

GREENVILLE       N/A     17 -10  29 NW12      30.30F WCI   4          
6HR MIN TEMP:   2; 6HR MAX TEMP:  17;                                

MILLINOCKET    FAIR      21  -2  36 NW8       30.41F                  
6HR MIN TEMP:   0; 6HR MAX TEMP:  21;                                

HOULTON        FAIR      16  -3  43 SW14      30.36F WCI   2          
6HR MIN TEMP:  -1; 6HR MAX TEMP:  17;                                

PRESQUE ISLE   FAIR      17  -4  39 W9G18     30.36F                  
6HR MIN TEMP: -17; 6HR MAX TEMP:  20; 6HR PCP: TRACE;                

FRENCHVILLE    FAIR      14  -7  38 W16       30.29F WCI  -2          
6HR MIN TEMP:   0; 6HR MAX TEMP:  14;                                

CARIBOU        FAIR      16  -8  34 NW7       30.33F                  
6HR MIN TEMP:  -6; 6HR MAX TEMP:  16;                                

$$

NHZ002-005-008-009-011-012-014-201900-
NEW HAMPSHIRE
  
CITY           SKY/WX    TMP DP  RH WIND       PRES   REMARKS
ROCHESTER      FAIR      26   4  38 CALM      30.47F                  
6HR MIN TEMP:   8; 6HR MAX TEMP:  26;                                

NASHUA         FAIR      29   7  39 VRB3      30.50F                  
MANCHESTER     CLOUDY    27   3  35 CALM      30.48F                  
6HR MIN TEMP:  11; 6HR MAX TEMP:  27;                                

CONCORD        FAIR      25   5  42 CALM      30.49F                  
6HR MIN TEMP:   2; 6HR MAX TEMP:  25;                                

LACONIA        FAIR      26   4  38 SW5       30.46F                  
PLYMOUTH       FAIR      24   3  40 CALM      30.45F                  
BERLIN         FAIR      21   0  39 NW5       30.39F                  
6HR MIN TEMP:  -7; 6HR MAX TEMP:  22;                                

WHITEFIELD     FAIR      22   1  40 NW6       30.41F                  
6HR MIN TEMP: -13; 6HR MAX TEMP:  22;                                

JAFFREY        FAIR      23   7  50 CALM      30.44F                  
6HR MIN TEMP:   9; 6HR MAX TEMP:  23;                                

KEENE          FAIR      27  11  51 NW5       30.49F                  
LEBANON        FAIR      20   4  50 W3        30.46F                  
6HR MIN TEMP:  -7; 6HR MAX TEMP:  21;                                

MT WASHINGTON  CLOUDY     5  -9  51 W40         N/A  WCI -22          
6HR MIN TEMP:  -5; 6HR MAX TEMP:   4;                                

$$

VTZ005-007-008-201900-
VERMONT
  
CITY           SKY/WX    TMP DP  RH WIND       PRES   REMARKS
ST JOHNSBURY     N/A     19   2  47 MISG      30.45F                  
MONTPELIER     FAIR      20   6  55 S9        30.44F                  
BURLINGTON     CLOUDY    23  10  57 S9        30.46F                  
$$

MAZ007-012-024-CTZ003-RIZ002-NYZ038-NYZ072-201900-
SOUTHERN NEW ENGLAND AND NY
  
CITY           SKY/WX    TMP DP  RH WIND       PRES   REMARKS
BOSTON         CLOUDY    29   7  39 SW6       30.51F                  
WORCESTER      FAIR      22   7  52 S6        30.44F                  
NANTUCKET      FAIR      28  11  48 CALM      30.52F                  
PROVIDENCE     CLOUDY    27   6  41 CALM      30.52F                  
HARTFORD       CLOUDY    26  10  50 CALM      30.52F                  
ALBANY         CLOUDY    25  10  53 S8        30.49F                  
NEW YORK CITY  SNOW      26  23  88 CALM      30.54F VSB 1/4          
$$

ANZ081-ANZ082-ANZ150-NHZ014-MEZ023>029-201900-
COASTAL MARINE OBSERVATIONS
  
STATION/POSITION TIME  TEMP    WIND        PRES    WAVE
                       AIR SEA DIR/SP/G            HT/PER
                 (UTC) (F)     (DEG/KT/KT) (MB)    (FT/S)
MOUNT DESERT ROC 1800   21     270/ 15/ 17 1032.1F
MATINICUS ROCK   1700   22     280/ 11/ 15 1032.6F
ISLE OF SHOALS   1700   22     250/  1/  2 1034.1F
JEFFREYS LEDGE   1738      40                N/A     2/ 3
CASHES LEDGE BUO 1750   28 39              1032.7F   2/ 4
$$

.............KEY..............
   WCI - WIND CHILL
   TC  - TEMPERATURE IN CELSIUS
   VSB - VISIBILITY IN MILES
   HX  - HEAT INDEX
   FAIR- INDICATES FEW OR NO CLOUDS BELOW 12,000 FT, WITH NO 
         SIGNIFICANT WEATHER AND/OR OBSTRUCTIONS TO VISIBILITY.